Location: Fort Worth, Tx
(32.7431°N, 97.3695°W)
Time: 22:00:40
(UTC-05:00)

Tiros 1 - Pass Details

Date: 06 October 2024
Orbit: 622 x 654 km, 48.4° (Epoch: 05 November)

Event Time Altitude Azimuth Distance (km) Brightness Sun altitude
Rises 15:17:59 0° 316° (NW) 2,900 10.4 49.1°
Reaches altitude 10° 15:20:30 10° 326° (NW) 1,989 9.6 48.9°
Maximum altitude 15:24:37 32° 30° (NNE) 1,061 8.2 48.5°
Drops below altitude 10° 15:28:43 10° 94° (E) 1,982 9.6 48.1°
Sets 15:31:13 0° 105° (ESE) 2,887 10.4 47.9°
